• In Hungary
  • List of Countries
  • For 7 days
  • Water Temperature
  • Satellite Maps
  • Weather Map
  • News
  • Weather Widgets
  • user-avatar
    Login

    Hourly Weather Pueblo Libre

    Today, 22 February, Thursday

    Time Temperature Precipitation Wind Pressure Humidity
    00:00 +7°C° 0.4 mm 1 mps 494 mmHg 82%
    01:00 +7°C° 0.4 mm 1 mps 494 mmHg 83%
    02:00 +6°C° 0.2 mm 1 mps 493 mmHg 83%
    03:00 +6°C° 0.2 mm 1 mps 493 mmHg 83%
    04:00 +6°C° 0.2 mm 1 mps 492 mmHg 83%
    05:00 +6°C° 0 mm 1 mps 493 mmHg 81%
    06:00 +6°C° 0 mm 1 mps 493 mmHg 78%
    07:00 +6°C° 0 mm 1 mps 494 mmHg 76%
    08:00 +8°C° 0 mm 1 mps 495 mmHg 68%
    09:00 +10°C° 0 mm 1 mps 496 mmHg 61%
    10:00 +12°C° 0 mm 1 mps 497 mmHg 53%
    11:00 +13°C° 0.3 mm 1 mps 497 mmHg 52%
    12:00 +13°C° 0.3 mm 2 mps 497 mmHg 52%
    13:00 +14°C° 0.3 mm 2 mps 497 mmHg 52%
    14:00 +14°C° 0.7 mm 2 mps 497 mmHg 54%
    15:00 +14°C° 0.7 mm 2 mps 496 mmHg 56%
    16:00 +13°C° 0.7 mm 2 mps 496 mmHg 58%
    17:00 +12°C° 0.9 mm 2 mps 495 mmHg 63%
    18:00 +10°C° 0.9 mm 2 mps 494 mmHg 69%
    19:00 +9°C° 0.9 mm 1 mps 494 mmHg 74%
    20:00 +9°C° 0.8 mm 1 mps 494 mmHg 76%
    21:00 +8°C° 0.8 mm 1 mps 494 mmHg 77%
    22:00 +8°C° 0.8 mm 1 mps 494 mmHg 79%
    23:00 +7°C° 0.6 mm 1 mps 494 mmHg 80%

    Tomorrow, 23 February, Friday

    Time Temperature Precipitation Wind Pressure Humidity
    00:00 +7°C° 0.6 mm 1 mps 493 mmHg 81%
    01:00 +6°C° 0.6 mm 1 mps 493 mmHg 82%
    02:00 +6°C° 0.4 mm 1 mps 493 mmHg 82%
    03:00 +6°C° 0.4 mm 1 mps 492 mmHg 82%
    04:00 +6°C° 0.4 mm 1 mps 492 mmHg 82%
    05:00 +6°C° 0.1 mm 1 mps 492 mmHg 80%
    06:00 +6°C° 0.1 mm 1 mps 493 mmHg 78%
    07:00 +6°C° 0.1 mm 1 mps 493 mmHg 76%
    08:00 +8°C° 0.1 mm 1 mps 494 mmHg 69%
    09:00 +10°C° 0.1 mm 1 mps 496 mmHg 62%
    10:00 +12°C° 0.1 mm 1 mps 497 mmHg 55%
    11:00 +12°C° 0.2 mm 1 mps 497 mmHg 53%
    12:00 +13°C° 0.2 mm 2 mps 497 mmHg 51%
    13:00 +14°C° 0.2 mm 2 mps 497 mmHg 50%
    14:00 +14°C° 0.5 mm 2 mps 496 mmHg 52%
    15:00 +14°C° 0.5 mm 2 mps 496 mmHg 55%
    16:00 +13°C° 0.5 mm 2 mps 496 mmHg 57%
    17:00 +12°C° 0.8 mm 2 mps 495 mmHg 62%
    18:00 +9°C° 0.8 mm 2 mps 494 mmHg 68%
    19:00 +9°C° 0.8 mm 1 mps 494 mmHg 73%
    20:00 +8°C° 0.4 mm 1 mps 494 mmHg 74%
    21:00 +7°C° 0.4 mm 1 mps 494 mmHg 75%
    22:00 +7°C° 0.4 mm 1 mps 494 mmHg 76%
    23:00 +6°C° 0.2 mm 1 mps 493 mmHg 76%

    Day after tomorrow, 24 February, Saturday

    Time Temperature Precipitation Wind Pressure Humidity
    00:00 +6°C° 0.2 mm 1 mps 493 mmHg 76%
    01:00 +6°C° 0.2 mm 1 mps 492 mmHg 76%
    02:00 +5°C° 0 mm 1 mps 492 mmHg 75%
    03:00 +5°C° 0 mm 1 mps 491 mmHg 73%
    04:00 +4°C° 0 mm 1 mps 491 mmHg 72%
    05:00 +5°C° 0 mm 1 mps 491 mmHg 69%
    06:00 +5°C° 0 mm 1 mps 492 mmHg 66%
    07:00 +5°C° 0 mm 1 mps 492 mmHg 63%
    08:00 +8°C° 0 mm 1 mps 494 mmHg 54%
    09:00 +10°C° 0 mm 1 mps 496 mmHg 45%
    10:00 +13°C° 0 mm 1 mps 498 mmHg 36%
    11:00 +14°C° 0.1 mm 1 mps 498 mmHg 36%
    12:00 +15°C° 0.1 mm 2 mps 497 mmHg 37%
    13:00 +15°C° 0.1 mm 2 mps 497 mmHg 37%
    14:00 +15°C° 0.1 mm 2 mps 497 mmHg 40%
    15:00 +15°C° 0.1 mm 2 mps 496 mmHg 44%
    16:00 +14°C° 0.1 mm 2 mps 495 mmHg 47%
    17:00 +13°C° 0.5 mm 2 mps 495 mmHg 56%
    18:00 +11°C° 0.5 mm 1 mps 494 mmHg 64%
    19:00 +9°C° 0.5 mm 1 mps 493 mmHg 72%
    20:00 +8°C° 0.6 mm 1 mps 493 mmHg 74%
    21:00 +8°C° 0.6 mm 1 mps 493 mmHg 76%
    22:00 +6°C° 0.6 mm 0 mps 494 mmHg 78%
    23:00 +7°C° 0.5 mm 1 mps 493 mmHg 78%

    25 February, Sunday

    Time Temperature Precipitation Wind Pressure Humidity
    00:00 +6°C° 0.5 mm 1 mps 493 mmHg 78%
    01:00 +6°C° 0.5 mm 1 mps 493 mmHg 78%
    02:00 +6°C° 0.5 mm 1 mps 492 mmHg 79%
    03:00 +5°C° 0.5 mm 0 mps 492 mmHg 79%
    04:00 +4°C° 0.5 mm 0 mps 492 mmHg 79%
    05:00 +5°C° 0.3 mm 0 mps 492 mmHg 77%
    06:00 +5°C° 0.3 mm 0 mps 493 mmHg 76%
    07:00 +5°C° 0.3 mm 0 mps 493 mmHg 74%
    08:00 +7°C° 0.4 mm 1 mps 494 mmHg 70%
    09:00 +8°C° 0.4 mm 1 mps 495 mmHg 67%
    10:00 +9°C° 0.4 mm 1 mps 496 mmHg 63%
    11:00 +9°C° 0.7 mm 1 mps 495 mmHg 62%
    12:00 +10°C° 0.7 mm 1 mps 495 mmHg 61%
    13:00 +10°C° 0.7 mm 2 mps 495 mmHg 60%
    14:00 +10°C° 0.7 mm 2 mps 495 mmHg 61%
    15:00 +9°C° 0.7 mm 2 mps 494 mmHg 63%
    16:00 +9°C° 0.7 mm 2 mps 494 mmHg 64%
    17:00 +9°C° 0.7 mm 1 mps 494 mmHg 68%
    18:00 +9°C° 0.7 mm 1 mps 494 mmHg 71%
    19:00 +8°C° 0.7 mm 1 mps 493 mmHg 74%
    20:00 +7°C° 0.2 mm 1 mps 493 mmHg 76%
    21:00 +5°C° 0.2 mm 0 mps 493 mmHg 79%
    22:00 +5°C° 0.2 mm 0 mps 493 mmHg 81%
    23:00 +4°C° 0.3 mm 0 mps 493 mmHg 81%

    26 February, Monday

    Time Temperature Precipitation Wind Pressure Humidity
    00:00 +4°C° 0.3 mm 0 mps 492 mmHg 81%
    01:00 +3°C° 0.3 mm 0 mps 492 mmHg 81%
    02:00 +3°C° 0.7 mm 0 mps 492 mmHg 81%
    03:00 +3°C° 0.7 mm 0 mps 491 mmHg 82%
    04:00 +3°C° 0.7 mm 0 mps 491 mmHg 82%
    05:00 +3°C° 0.4 mm 0 mps 492 mmHg 80%
    06:00 +4°C° 0.4 mm 0 mps 492 mmHg 78%
    07:00 +4°C° 0.4 mm 0 mps 493 mmHg 76%
    08:00 +7°C° 0.2 mm 1 mps 494 mmHg 71%
    09:00 +9°C° 0.2 mm 1 mps 495 mmHg 66%
    10:00 +9°C° 0.2 mm 2 mps 497 mmHg 61%
    11:00 +10°C° 0.3 mm 2 mps 497 mmHg 59%
    12:00 +12°C° 0.3 mm 2 mps 497 mmHg 58%
    13:00 +13°C° 0.3 mm 2 mps 497 mmHg 57%
    14:00 +13°C° 0.3 mm 2 mps 496 mmHg 58%
    15:00 +13°C° 0.3 mm 2 mps 496 mmHg 59%
    16:00 +12°C° 0.3 mm 2 mps 495 mmHg 59%
    17:00 +10°C° 0.3 mm 2 mps 495 mmHg 65%
    18:00 +9°C° 0.3 mm 1 mps 494 mmHg 71%
    19:00 +8°C° 0.3 mm 1 mps 493 mmHg 78%
    20:00 +7°C° 0.4 mm 1 mps 493 mmHg 79%
    21:00 +7°C° 0.4 mm 1 mps 493 mmHg 81%
    22:00 +7°C° 0.4 mm 1 mps 493 mmHg 83%
    23:00 +6°C° 0.3 mm 1 mps 493 mmHg 83%

    27 February, Tuesday

    Time Temperature Precipitation Wind Pressure Humidity
    00:00 +6°C° 0.3 mm 1 mps 493 mmHg 83%
    01:00 +6°C° 0.3 mm 1 mps 492 mmHg 84%
    02:00 +6°C° 0.2 mm 1 mps 492 mmHg 84%
    03:00 +5°C° 0.2 mm 1 mps 492 mmHg 84%
    04:00 +5°C° 0.2 mm 1 mps 491 mmHg 84%
    05:00 +5°C° 0.1 mm 1 mps 492 mmHg 82%
    06:00 +6°C° 0.1 mm 1 mps 492 mmHg 80%
    07:00 +6°C° 0.1 mm 1 mps 493 mmHg 78%
    08:00 +8°C° 0.1 mm 1 mps 494 mmHg 70%
    09:00 +10°C° 0.1 mm 1 mps 495 mmHg 63%
    10:00 +12°C° 0.1 mm 1 mps 497 mmHg 55%
    11:00 +12°C° 0.1 mm 2 mps 497 mmHg 54%
    12:00 +13°C° 0.1 mm 2 mps 497 mmHg 52%
    13:00 +14°C° 0.1 mm 2 mps 497 mmHg 51%
    14:00 +14°C° 0.2 mm 2 mps 496 mmHg 52%
    15:00 +14°C° 0.2 mm 2 mps 496 mmHg 54%
    16:00 +14°C° 0.2 mm 2 mps 495 mmHg 55%
    17:00 +12°C° 0.4 mm 2 mps 495 mmHg 62%
    18:00 +10°C° 0.4 mm 1 mps 494 mmHg 69%
    19:00 +9°C° 0.4 mm 1 mps 493 mmHg 76%
    20:00 +8°C° 0.5 mm 1 mps 493 mmHg 78%
    21:00 +8°C° 0.5 mm 1 mps 493 mmHg 79%
    22:00 +7°C° 0.5 mm 1 mps 493 mmHg 81%
    23:00 +7°C° 0.2 mm 1 mps 493 mmHg 81%
    Show more